Year,Month,Day,Hour,Minute,Value (Times are PST for temperature in C)
2016,06,01,00,00,16.30
2016,06,01,00,01,16.30
2016,06,01,00,02,16.30
2016,06,01,11,55,20.10
2016,06,01,11,56,19.90
2016,06,01,11,57,19.80
2016,06,01,11,58,19.80
2016,06,01,11,59,19.90
2016,06,01,12,00,19.90
2016,06,01,12,01,19.90
2016,06,01,12,02,19.90
2016,06,01,12,03,19.60
2016,06,01,12,04,19.30
2016,06,01,12,05,19.00
2016,06,01,12,06,18.70
2016,06,01,12,07,18.50
2016,06,01,12,08,18.30
2016,06,01,12,09,18.00
2016,06,01,12,10,17.80
2016,06,01,12,11,17.70
2016,06,01,12,12,17.70
2016,06,01,12,13,17.70
2016,06,01,12,14,17.80
2016,06,01,12,15,17.80
2016,06,01,12,16,17.90
2016,06,01,12,17,17.90
2016,06,01,12,18,17.90
2016,06,01,12,19,17.90
2016,06,01,12,20,18.00
2016,06,01,12,21,18.10
2016,06,01,12,22,18.20
2016,06,01,12,23,18.20
2016,06,01,12,24,18.30
2016,06,01,12,25,18.30
2016,06,01,12,26,18.40
2016,06,01,12,27,18.50
2016,06,01,12,28,18.50
2016,06,01,12,29,18.60
2016,06,01,12,30,18.60
2016,06,01,12,31,18.70
2016,06,01,12,32,18.80
2016,06,01,12,33,18.80
2016,06,01,12,34,18.90
2016,06,01,12,35,18.90
2016,06,01,12,36,18.90
2016,06,01,12,37,18.90
2016,06,01,12,38,18.90
2016,06,01,12,39,18.90
2016,06,01,12,40,18.90
2016,06,01,12,41,18.90
2016,06,01,12,42,19.00
2016,06,01,12,43,19.10
2016,06,01,12,44,19.10
2016,06,01,12,45,19.10
2016,06,01,12,46,19.10
2016,06,01,12,47,19.20
2016,06,01,12,48,19.20
2016,06,01,12,49,19.40
2016,06,01,12,50,19.50
2016,06,01,12,51,19.70
2016,06,01,12,52,19.90
2016,06,01,12,53,20.10
2016,06,01,12,54,20.20
2016,06,01,12,55,20.40
2016,06,01,12,56,20.70
2016,06,01,12,57,20.80
2016,06,01,12,58,20.90
2016,06,01,12,59,21.00
2016,06,01,13,00,21.00
2016,06,01,13,01,21.00
2016,06,01,13,02,21.10
2016,06,01,13,03,21.00
2016,06,01,13,04,21.00
2016,06,01,13,05,21.00
2016,06,01,13,06,21.10
2016,06,01,13,07,21.00
2016,06,01,13,08,20.80
2016,06,01,13,09,20.60
2016,06,01,13,10,20.50
2016,06,01,13,11,20.30
2016,06,01,13,12,20.30
2016,06,01,13,13,20.40
2016,06,01,13,14,20.40
2016,06,01,13,15,20.50
2016,06,01,13,16,20.50
2016,06,01,13,17,20.40
2016,06,01,13,18,20.40
2016,06,01,13,19,20.20
2016,06,01,13,20,19.90
2016,06,01,13,21,19.70
2016,06,01,13,22,19.50
2016,06,01,13,23,19.30
2016,06,01,13,24,19.10
2016,06,01,13,25,18.90
2016,06,01,13,26,18.80
2016,06,01,13,27,18.60
2016,06,01,13,28,18.50
2016,06,01,13,29,18.30
2016,06,01,13,30,18.20
2016,06,01,13,31,18.20
2016,06,01,13,32,18.30
2016,06,01,13,33,18.30
2016,06,01,13,34,18.30
2016,06,01,13,35,18.30
2016,06,01,13,36,18.30
2016,06,01,13,37,18.20
2016,06,01,13,38,18.10
2016,06,01,13,39,18.00
2016,06,01,13,40,17.90
2016,06,01,13,41,17.90
2016,06,01,13,42,17.90
2016,06,01,13,43,17.90
2016,06,01,13,44,18.00
2016,06,01,13,45,18.10
2016,06,01,13,46,18.20
2016,06,01,13,47,18.30
2016,06,01,13,48,18.30
2016,06,01,13,49,18.30
2016,06,01,13,50,18.30
2016,06,01,13,51,18.30
2016,06,01,13,52,18.30
2016,06,01,13,53,18.30
2016,06,01,13,54,18.40
2016,06,01,13,55,18.40
2016,06,01,13,56,18.50
2016,06,01,13,57,18.60
2016,06,01,13,58,18.60
2016,06,01,13,59,18.70
2016,06,01,14,00,18.80
2016,06,01,14,01,18.90
2016,06,01,14,02,19.00
2016,06,01,14,03,19.10
2016,06,01,14,04,19.20
2016,06,01,14,05,19.20
2016,06,01,14,06,19.30
2016,06,01,14,07,19.30
2016,06,01,14,08,19.40
2016,06,01,14,09,19.50
2016,06,01,14,10,19.50
2016,06,01,14,11,19.60
2016,06,01,14,12,19.60
2016,06,01,14,13,19.70
2016,06,01,14,14,19.80
2016,06,01,14,15,19.80
2016,06,01,14,16,19.90
2016,06,01,14,17,19.90
2016,06,01,14,18,20.00
2016,06,01,14,19,20.10
2016,06,01,14,20,20.20
2016,06,01,14,21,20.20
2016,06,01,14,22,20.20
2016,06,01,14,23,20.20
2016,06,01,14,24,20.20
2016,06,01,14,25,20.20
2016,06,01,14,26,20.20
2016,06,01,14,27,20.30
2016,06,01,14,28,20.30
2016,06,01,14,29,20.30
2016,06,01,14,30,20.40
2016,06,01,14,31,20.50
2016,06,01,14,32,20.50
2016,06,01,14,33,20.40
2016,06,01,14,34,20.40
2016,06,01,14,35,20.30
2016,06,01,14,36,20.20
2016,06,01,14,37,20.10
2016,06,01,14,38,19.90
2016,06,01,14,39,19.80
2016,06,01,14,40,19.70
2016,06,01,14,41,19.70
2016,06,01,14,42,19.60
2016,06,01,14,43,19.60
2016,06,01,14,44,19.60
2016,06,01,14,45,19.60
2016,06,01,14,46,19.60
2016,06,01,14,47,19.60
2016,06,01,14,48,19.60
2016,06,01,14,49,19.70
2016,06,01,14,50,19.60
2016,06,01,14,51,19.60
2016,06,01,14,52,19.60
2016,06,01,14,53,19.60
2016,06,01,14,54,19.60
2016,06,01,14,55,19.50
2016,06,01,14,56,19.50
2016,06,01,14,57,19.40
2016,06,01,14,58,19.40
2016,06,01,14,59,19.30
2016,06,01,15,00,19.30
2016,06,01,15,01,19.30
2016,06,01,15,02,19.20
2016,06,01,15,03,19.20
2016,06,01,15,04,19.20
2016,06,01,15,05,19.10
2016,06,01,15,06,19.10
2016,06,01,15,07,19.10
2016,06,01,15,08,19.10
2016,06,01,15,09,19.10
2016,06,01,15,10,19.10
2016,06,01,15,11,19.10
2016,06,01,15,12,19.10
2016,06,01,15,13,19.10
2016,06,01,15,14,19.10
2016,06,01,15,15,19.10
2016,06,01,15,16,19.10
2016,06,01,15,17,19.20
2016,06,01,15,18,19.20
2016,06,01,15,19,19.20
2016,06,01,15,20,19.20
2016,06,01,15,21,19.20
2016,06,01,15,22,19.20
2016,06,01,15,23,19.20
2016,06,01,15,24,19.20
2016,06,01,15,25,19.20
2016,06,01,15,26,19.30
2016,06,01,15,27,19.30
2016,06,01,15,28,19.30
2016,06,01,15,29,19.30
2016,06,01,15,30,19.30
2016,06,01,15,31,19.30
2016,06,01,15,32,19.30
2016,06,01,15,33,19.20
2016,06,01,15,34,19.10
2016,06,01,15,35,19.00
2016,06,01,15,36,18.90
2016,06,01,15,37,18.90
2016,06,01,15,38,18.80
2016,06,01,15,39,18.80
2016,06,01,15,40,18.80
2016,06,01,15,41,18.80
2016,06,01,15,42,18.80
2016,06,01,15,43,18.80
2016,06,01,15,44,18.90
2016,06,01,15,45,18.90
2016,06,01,15,46,18.90
2016,06,01,15,47,18.90
2016,06,01,15,48,18.90
2016,06,01,15,49,18.90
2016,06,01,15,50,18.90
2016,06,01,15,51,18.90
2016,06,01,15,52,18.90
2016,06,01,15,53,18.90
2016,06,01,15,54,18.90
2016,06,01,15,55,18.90
2016,06,01,15,56,18.90
2016,06,01,15,57,18.90
2016,06,01,15,58,18.90
2016,06,01,15,59,18.90
2016,06,01,16,00,19.00
2016,06,01,16,01,19.00
2016,06,01,16,02,19.00
2016,06,01,16,03,19.10
2016,06,01,16,04,19.10
2016,06,01,16,05,19.10
2016,06,01,16,06,19.10
2016,06,01,16,07,19.10
2016,06,01,16,08,18.90
2016,06,01,16,09,18.90
2016,06,01,16,10,18.90
2016,06,01,16,11,18.90
2016,06,01,16,12,18.90
2016,06,01,16,13,18.90
2016,06,01,16,14,18.80
2016,06,01,16,15,18.80
2016,06,01,16,16,18.70
2016,06,01,16,17,18.70
2016,06,01,16,18,18.60
2016,06,01,16,19,18.60
2016,06,01,16,20,18.70
2016,06,01,16,21,18.70
2016,06,01,16,22,18.70
2016,06,01,16,23,18.70
2016,06,01,16,24,18.70
2016,06,01,16,25,18.80
2016,06,01,16,26,18.80
2016,06,01,16,27,18.80
2016,06,01,16,28,18.70
2016,06,01,16,29,18.70
2016,06,01,16,30,18.70
2016,06,01,16,31,18.60
2016,06,01,16,32,18.60
2016,06,01,16,33,18.70
2016,06,01,16,34,18.70
2016,06,01,16,35,18.70
2016,06,01,16,36,18.70
2016,06,01,16,37,18.80
2016,06,01,16,38,18.80
2016,06,01,16,39,18.90
2016,06,01,16,40,18.90
2016,06,01,16,41,18.90
2016,06,01,16,42,19.10
2016,06,01,16,43,19.10
2016,06,01,16,44,19.10
2016,06,01,16,45,19.20
2016,06,01,16,46,19.20
2016,06,01,16,47,19.20
2016,06,01,16,48,19.10
2016,06,01,16,49,19.10
2016,06,01,16,50,19.10
2016,06,01,16,51,19.10
2016,06,01,16,52,19.10
2016,06,01,16,53,19.10
2016,06,01,16,54,19.10
2016,06,01,16,55,19.10
2016,06,01,16,56,19.10
2016,06,01,16,57,19.10
2016,06,01,16,58,19.00
2016,06,01,16,59,18.90
2016,06,01,17,00,19.00
2016,06,01,17,01,19.10
2016,06,01,17,02,19.10
2016,06,01,17,03,19.10
2016,06,01,17,04,19.10
2016,06,01,17,05,19.10
2016,06,01,17,06,19.10
2016,06,01,17,07,19.10
2016,06,01,17,08,19.10
2016,06,01,17,09,19.10
2016,06,01,17,10,19.10
2016,06,01,17,11,19.10
2016,06,01,17,12,19.10
2016,06,01,17,13,19.10
2016,06,01,17,14,19.10
2016,06,01,17,15,19.10
2016,06,01,17,16,19.10
2016,06,01,17,17,19.10
2016,06,01,17,18,19.10
2016,06,01,17,19,19.10
2016,06,01,17,20,19.10
2016,06,01,17,21,19.10
2016,06,01,17,22,19.10
2016,06,01,17,23,19.00
2016,06,01,17,24,19.00
2016,06,01,17,25,18.90
2016,06,01,17,26,18.90
2016,06,01,17,27,18.90
2016,06,01,17,28,18.80
2016,06,01,17,29,18.80
2016,06,01,17,30,18.80
2016,06,01,17,31,18.80
2016,06,01,17,32,18.80
2016,06,01,17,33,18.80
2016,06,01,17,34,18.70
2016,06,01,17,35,18.70
2016,06,01,17,36,18.70
2016,06,01,17,37,18.60
2016,06,01,17,38,18.60
2016,06,01,17,39,18.60
2016,06,01,17,40,18.60
2016,06,01,17,41,18.60
2016,06,01,17,42,18.60
2016,06,01,17,43,18.60
2016,06,01,17,44,18.60
2016,06,01,17,45,18.50
2016,06,01,17,46,18.50
2016,06,01,17,47,18.50
2016,06,01,17,48,18.50
2016,06,01,17,49,18.40
2016,06,01,17,50,18.30
2016,06,01,17,51,18.20
2016,06,01,17,52,18.10
2016,06,01,17,53,18.00
2016,06,01,17,54,17.90
2016,06,01,17,55,17.80
2016,06,01,17,56,17.70
2016,06,01,17,57,17.60
2016,06,01,17,58,17.60
2016,06,01,17,59,17.60
2016,06,01,18,00,17.50
2016,06,01,18,01,17.50
2016,06,01,18,02,17.50
2016,06,01,18,03,17.40
2016,06,01,18,04,17.50
2016,06,01,18,05,17.50
2016,06,01,18,06,17.50
2016,06,01,18,07,17.50
2016,06,01,18,08,17.60
2016,06,01,18,09,17.60
2016,06,01,18,10,17.50
2016,06,01,18,11,17.50
2016,06,01,18,12,17.50
2016,06,01,18,13,17.50
2016,06,01,18,14,17.50
2016,06,01,18,15,17.40
2016,06,01,18,16,17.40
2016,06,01,18,17,17.40
2016,06,01,18,18,17.40
2016,06,01,18,19,17.40
2016,06,01,18,20,17.30
2016,06,01,18,21,17.30
2016,06,01,18,22,17.20
2016,06,01,18,23,17.10
2016,06,01,18,24,17.00
2016,06,01,18,25,16.90
2016,06,01,18,26,16.90
2016,06,01,18,27,16.80
2016,06,01,18,28,16.80
2016,06,01,18,29,16.80
2016,06,01,18,30,16.80
2016,06,01,18,31,16.70
2016,06,01,18,32,16.70
2016,06,01,18,33,16.70
2016,06,01,18,34,16.70
2016,06,01,18,35,16.70
2016,06,01,18,36,16.80
2016,06,01,18,37,16.80
2016,06,01,18,38,16.80
2016,06,01,18,39,16.90
2016,06,01,18,40,16.90
2016,06,01,18,41,16.90
2016,06,01,18,42,16.90
2016,06,01,18,43,17.00
2016,06,01,18,44,17.00
2016,06,01,18,45,17.00
2016,06,01,18,46,17.00
2016,06,01,18,47,17.00
2016,06,01,18,48,17.00
2016,06,01,18,49,17.00
2016,06,01,18,50,17.00
2016,06,01,18,51,17.00
2016,06,01,18,52,17.10
2016,06,01,18,53,17.10
2016,06,01,18,54,17.10
2016,06,01,18,55,17.10
2016,06,01,18,56,17.10
2016,06,01,18,57,17.20
2016,06,01,18,58,17.20
2016,06,01,18,59,17.20
2016,06,01,19,00,17.20
2016,06,01,19,01,17.20
2016,06,01,19,02,17.20
2016,06,01,19,03,17.20
2016,06,01,19,04,17.20
2016,06,01,19,05,17.20
2016,06,01,19,06,17.20
2016,06,01,19,07,17.20
2016,06,01,19,08,17.20
2016,06,01,19,09,17.20
2016,06,01,19,10,17.20
2016,06,01,19,11,17.20
2016,06,01,19,12,17.20
2016,06,01,19,13,17.20
2016,06,01,19,14,17.20
2016,06,01,19,15,17.20
2016,06,01,19,16,17.20
2016,06,01,19,17,17.20
2016,06,01,19,18,17.20
2016,06,01,19,19,17.20
2016,06,01,19,20,17.20
2016,06,01,19,21,17.20
2016,06,01,19,22,17.20
2016,06,01,19,23,17.20
2016,06,01,19,24,17.20
2016,06,01,19,25,17.10
2016,06,01,19,26,17.10
2016,06,01,19,27,17.10
2016,06,01,19,28,17.10
2016,06,01,19,29,17.10
2016,06,01,19,30,17.10
2016,06,01,19,31,17.10
2016,06,01,19,32,17.10
2016,06,01,19,33,17.10
2016,06,01,19,34,17.10
2016,06,01,19,35,17.00
2016,06,01,19,36,17.00
2016,06,01,19,37,16.90
2016,06,01,19,38,16.90
2016,06,01,19,39,16.70
2016,06,01,19,40,16.60
2016,06,01,19,41,16.40
2016,06,01,19,42,16.30
2016,06,01,19,43,16.20
2016,06,01,19,44,16.10
2016,06,01,19,45,16.00
2016,06,01,19,46,15.90
2016,06,01,19,47,15.80
2016,06,01,19,48,15.70
2016,06,01,19,49,15.70
2016,06,01,19,50,15.60
2016,06,01,19,51,15.50
2016,06,01,19,52,15.50
2016,06,01,19,53,15.40
2016,06,01,19,54,15.40
2016,06,01,19,55,15.30
2016,06,01,19,56,15.30
2016,06,01,19,57,15.30
2016,06,01,19,58,15.30
2016,06,01,19,59,15.30
2016,06,01,20,00,15.30
2016,06,01,20,01,15.30
2016,06,01,20,02,15.30
2016,06,01,20,03,15.30
2016,06,01,20,04,15.30
2016,06,01,20,05,15.30
2016,06,01,20,06,15.30
2016,06,01,20,07,15.30
2016,06,01,20,08,15.30
2016,06,01,20,09,15.30
2016,06,01,20,10,15.30
2016,06,01,20,11,15.30
2016,06,01,20,12,15.30
2016,06,01,20,13,15.40
2016,06,01,20,14,15.40
2016,06,01,20,15,15.40
2016,06,01,20,16,15.40
2016,06,01,20,17,15.50
2016,06,01,20,18,15.50
2016,06,01,20,19,15.50
2016,06,01,20,20,15.50
2016,06,01,20,21,15.50
2016,06,01,20,22,15.50
2016,06,01,20,23,15.40
2016,06,01,20,24,15.40
2016,06,01,20,25,15.30
2016,06,01,20,26,15.30
2016,06,01,20,27,15.30
2016,06,01,20,28,15.30
2016,06,01,20,29,15.30
2016,06,01,20,30,15.20
2016,06,01,20,31,15.20
2016,06,01,20,32,15.20
2016,06,01,20,33,15.20
2016,06,01,20,34,15.20
2016,06,01,20,35,15.20
2016,06,01,20,36,15.20
2016,06,01,20,37,15.20
2016,06,01,20,38,15.10
2016,06,01,20,39,15.10
2016,06,01,20,40,15.10
2016,06,01,20,41,15.00
2016,06,01,20,42,15.00
2016,06,01,20,43,15.00
2016,06,01,20,44,14.90
2016,06,01,20,45,14.90
2016,06,01,20,46,14.90
2016,06,01,20,47,14.80
2016,06,01,20,48,14.80
2016,06,01,20,49,14.80
2016,06,01,20,50,14.80
2016,06,01,20,51,14.80
2016,06,01,20,52,14.80
2016,06,01,20,53,14.80
2016,06,01,20,54,14.80
2016,06,01,20,55,14.80
2016,06,01,20,56,14.80
2016,06,01,20,57,14.80
2016,06,01,20,58,14.80
2016,06,01,20,59,14.80
2016,06,01,21,00,14.80
2016,06,01,21,01,14.80
2016,06,01,21,02,14.80
2016,06,01,21,03,14.80
2016,06,01,21,04,14.90
2016,06,01,21,05,14.90
2016,06,01,21,06,14.90
2016,06,01,21,07,14.90
2016,06,01,21,08,14.90
2016,06,01,21,09,14.90
2016,06,01,21,10,14.90
2016,06,01,21,11,14.90
2016,06,01,21,12,14.90
2016,06,01,21,13,14.90
2016,06,01,21,14,14.90
2016,06,01,21,15,14.90
2016,06,01,21,16,14.90
2016,06,01,21,17,14.90
2016,06,01,21,18,14.80
2016,06,01,21,19,14.80
2016,06,01,21,20,14.80
2016,06,01,21,21,14.80
2016,06,01,21,22,14.80
2016,06,01,21,23,14.80
2016,06,01,21,24,14.80
2016,06,01,21,25,14.80
2016,06,01,21,26,14.80
2016,06,01,21,27,14.80
2016,06,01,21,28,14.80
2016,06,01,21,29,14.70
2016,06,01,21,30,14.70
2016,06,01,21,31,14.70
2016,06,01,21,32,14.70
2016,06,01,21,33,14.70
2016,06,01,21,34,14.60
2016,06,01,21,35,14.60
2016,06,01,21,36,14.60
2016,06,01,21,37,14.60
2016,06,01,21,38,14.60
2016,06,01,21,39,14.60
2016,06,01,21,40,14.60
2016,06,01,21,41,14.60
2016,06,01,21,42,14.60
2016,06,01,21,43,14.60
2016,06,01,21,44,14.60
2016,06,01,21,45,14.60
2016,06,01,21,46,14.60
2016,06,01,21,47,14.50
2016,06,01,21,48,14.50
2016,06,01,21,49,14.40
2016,06,01,21,50,14.40
2016,06,01,21,51,14.40
2016,06,01,21,52,14.30
2016,06,01,21,53,14.30
2016,06,01,21,54,14.30
2016,06,01,21,55,14.30
2016,06,01,21,56,14.30
2016,06,01,21,57,14.30
2016,06,01,21,58,14.20
2016,06,01,21,59,14.20
2016,06,01,22,00,14.20
2016,06,01,22,01,14.20
2016,06,01,22,02,14.20
2016,06,01,22,03,14.10
2016,06,01,22,04,14.10
2016,06,01,22,05,14.00
2016,06,01,22,06,14.00
2016,06,01,22,07,14.00
2016,06,01,22,08,14.00
2016,06,01,22,09,13.90
2016,06,01,22,10,13.90
2016,06,01,22,11,13.90
2016,06,01,22,12,13.90
2016,06,01,22,13,13.90
2016,06,01,22,14,13.90
2016,06,01,22,15,13.90
2016,06,01,22,16,13.90
2016,06,01,22,17,13.90
2016,06,01,22,18,13.90
2016,06,01,22,19,13.90
2016,06,01,22,20,13.90
2016,06,01,22,21,13.90
2016,06,01,22,22,13.90
2016,06,01,22,23,13.90
2016,06,01,22,24,13.90
2016,06,01,22,25,13.90
2016,06,01,22,26,13.90
2016,06,01,22,27,13.90
2016,06,01,22,28,13.90
2016,06,01,22,29,13.90
2016,06,01,22,30,13.90
2016,06,01,22,31,13.90
2016,06,01,22,32,13.90
2016,06,01,22,33,13.90
2016,06,01,22,34,13.90
2016,06,01,22,35,13.90
2016,06,01,22,36,13.90
